Time,TemperatureF,DewpointF,PressureIn,WindDirection,WindDirectionDegrees,WindSpeedMPH,WindSpeedGustMPH,Humidity,HourlyPrecipIn,Conditions,Clouds,dailyrainin,SolarRadiationWatts/m^2,SoftwareType,DateUTC
2013-06-25 00:01:00,69.0,68.0,-100.00,SSE,159,1.0,5.0,97,0.00,,,0.49,0.000000,,2013-06-25 04:01:00,
2013-06-25 00:34:00,69.0,68.0,-100.00,SSE,159,1.0,5.0,97,0.00,,,0.49,0.000000,,2013-06-25 04:34:00,
2013-06-25 00:43:00,69.0,68.0,-100.00,SSE,159,1.0,5.0,97,0.00,,,0.49,0.000000,,2013-06-25 04:43:00,
2013-06-25 00:52:00,69.0,68.0,-100.00,SSE,159,1.0,5.0,97,0.00,,,0.49,0.000000,,2013-06-25 04:52:00,
2013-06-25 01:01:00,69.0,67.0,-100.00,NNE,26,0.0,8.0,93,0.00,,,0.49,0.000000,,2013-06-25 05:01:00,
2013-06-25 01:32:00,69.0,67.0,-100.00,NNE,26,0.0,8.0,93,0.00,,,0.49,0.000000,,2013-06-25 05:32:00,
2013-06-25 01:44:00,69.0,67.0,-100.00,NNE,26,0.0,8.0,93,0.00,,,0.49,0.000000,,2013-06-25 05:44:00,
2013-06-25 01:52:00,69.0,67.0,-100.00,NNE,26,0.0,8.0,93,0.00,,,0.49,0.000000,,2013-06-25 05:52:00,
2013-06-25 02:01:00,70.0,67.0,-100.00,East,82,1.0,7.0,89,0.00,,,0.49,0.000000,,2013-06-25 06:01:00,
2013-06-25 02:34:00,70.0,67.0,-100.00,East,82,1.0,7.0,89,0.00,,,0.49,0.000000,,2013-06-25 06:34:00,
2013-06-25 02:43:00,70.0,67.0,-100.00,East,82,1.0,7.0,89,0.00,,,0.49,0.000000,,2013-06-25 06:43:00,
2013-06-25 02:52:00,70.0,67.0,-100.00,East,82,1.0,7.0,89,0.00,,,0.49,0.000000,,2013-06-25 06:52:00,
2013-06-25 03:01:00,70.0,66.0,-100.00,ENE,74,1.0,6.0,87,0.00,,,0.49,0.000000,,2013-06-25 07:01:00,
2013-06-25 03:33:00,70.0,66.0,-100.00,ENE,74,1.0,6.0,87,0.00,,,0.49,0.000000,,2013-06-25 07:33:00,
2013-06-25 03:43:00,70.0,66.0,-100.00,ENE,74,1.0,6.0,87,0.00,,,0.49,0.000000,,2013-06-25 07:43:00,
2013-06-25 03:52:00,70.0,66.0,-100.00,ENE,74,1.0,6.0,87,0.00,,,0.49,0.000000,,2013-06-25 07:52:00,
2013-06-25 04:01:00,69.0,65.0,-100.00,NW,322,1.0,5.0,88,0.00,,,0.49,0.000000,,2013-06-25 08:01:00,
2013-06-25 04:34:00,69.0,65.0,-100.00,NW,322,1.0,5.0,88,0.00,,,0.49,0.000000,,2013-06-25 08:34:00,
2013-06-25 04:43:00,69.0,65.0,-100.00,NW,322,1.0,5.0,88,0.00,,,0.49,0.000000,,2013-06-25 08:43:00,
2013-06-25 04:53:00,69.0,65.0,-100.00,NW,322,1.0,5.0,88,0.00,,,0.49,0.000000,,2013-06-25 08:53:00,
2013-06-25 05:01:00,69.0,65.0,-100.00,SSE,164,1.0,6.0,87,0.00,,,0.49,0.000000,,2013-06-25 09:01:00,
2013-06-25 05:33:00,69.0,65.0,-100.00,SSE,164,1.0,6.0,87,0.00,,,0.49,0.000000,,2013-06-25 09:33:00,
2013-06-25 05:43:00,69.0,65.0,-100.00,SSE,164,1.0,6.0,87,0.00,,,0.49,0.000000,,2013-06-25 09:43:00,
2013-06-25 05:53:00,69.0,65.0,-100.00,SSE,164,1.0,6.0,87,0.00,,,0.49,0.000000,,2013-06-25 09:53:00,
2013-06-25 06:01:00,70.0,65.0,-100.00,SE,129,1.0,5.0,85,0.00,,,0.49,9.000000,,2013-06-25 10:01:00,
2013-06-25 06:33:00,70.0,65.0,-100.00,SE,129,1.0,5.0,85,0.00,,,0.49,9.000000,,2013-06-25 10:33:00,
2013-06-25 06:43:00,70.0,65.0,-100.00,SE,129,1.0,5.0,85,0.00,,,0.49,9.000000,,2013-06-25 10:43:00,
2013-06-25 06:52:00,70.0,65.0,-100.00,SE,129,1.0,5.0,85,0.00,,,0.49,9.000000,,2013-06-25 10:52:00,
2013-06-25 07:01:00,70.0,66.0,-100.00,SSE,150,0.0,5.0,87,0.00,,,0.49,51.000000,,2013-06-25 11:01:00,
2013-06-25 07:34:00,70.0,66.0,-100.00,SSE,150,0.0,5.0,87,0.00,,,0.49,51.000000,,2013-06-25 11:34:00,
2013-06-25 07:43:00,70.0,66.0,-100.00,SSE,150,0.0,5.0,87,0.00,,,0.49,51.000000,,2013-06-25 11:43:00,
2013-06-25 07:52:00,70.0,66.0,-100.00,SSE,150,0.0,5.0,87,0.00,,,0.49,51.000000,,2013-06-25 11:52:00,
2013-06-25 08:01:00,74.0,66.0,-100.00,SSE,153,1.0,8.0,77,0.00,,,0.49,103.000000,,2013-06-25 12:01:00,
2013-06-25 08:33:00,74.0,66.0,-100.00,SSE,153,1.0,8.0,77,0.00,,,0.49,103.000000,,2013-06-25 12:33:00,
2013-06-25 08:43:00,74.0,66.0,-100.00,SSE,153,1.0,8.0,77,0.00,,,0.49,103.000000,,2013-06-25 12:43:00,
2013-06-25 08:55:00,74.0,66.0,-100.00,SSE,153,1.0,8.0,77,0.00,,,0.49,103.000000,,2013-06-25 12:55:00,
2013-06-25 09:01:00,78.0,67.0,-100.00,SSW,192,2.0,9.0,70,0.00,,,0.49,292.000000,,2013-06-25 13:01:00,
2013-06-25 09:34:00,78.0,67.0,-100.00,SSW,192,2.0,9.0,70,0.00,,,0.49,292.000000,,2013-06-25 13:34:00,
2013-06-25 09:43:00,78.0,67.0,-100.00,SSW,192,2.0,9.0,70,0.00,,,0.49,292.000000,,2013-06-25 13:43:00,
2013-06-25 09:53:00,78.0,67.0,-100.00,SSW,192,2.0,9.0,70,0.00,,,0.49,292.000000,,2013-06-25 13:53:00,
2013-06-25 10:01:00,81.0,68.0,-100.00,South,183,3.0,11.0,64,0.00,,,0.49,561.000000,,2013-06-25 14:01:00,
2013-06-25 10:34:00,81.0,68.0,-100.00,South,183,3.0,11.0,64,0.00,,,0.49,561.000000,,2013-06-25 14:34:00,
2013-06-25 10:43:00,81.0,68.0,-100.00,South,183,3.0,11.0,64,0.00,,,0.49,561.000000,,2013-06-25 14:43:00,
2013-06-25 10:53:00,81.0,68.0,-100.00,South,183,3.0,11.0,64,0.00,,,0.49,561.000000,,2013-06-25 14:53:00,
2013-06-25 11:01:00,84.0,70.0,-100.00,South,183,2.0,11.0,62,0.00,,,0.49,689.000000,,2013-06-25 15:01:00,
2013-06-25 11:32:00,84.0,70.0,-100.00,South,183,2.0,11.0,62,0.00,,,0.49,689.000000,,2013-06-25 15:32:00,
2013-06-25 11:44:00,84.0,70.0,-100.00,South,183,2.0,11.0,62,0.00,,,0.49,689.000000,,2013-06-25 15:44:00,
2013-06-25 11:53:00,84.0,70.0,-100.00,South,183,2.0,11.0,62,0.00,,,0.49,689.000000,,2013-06-25 15:53:00,
2013-06-25 12:01:00,82.0,69.0,-100.00,WSW,250,2.0,11.0,66,0.00,,,0.49,691.000000,,2013-06-25 16:01:00,
2013-06-25 12:35:00,82.0,69.0,-100.00,WSW,250,2.0,11.0,66,0.00,,,0.49,691.000000,,2013-06-25 16:35:00,
2013-06-25 12:44:00,82.0,69.0,-100.00,WSW,250,2.0,11.0,66,0.00,,,0.49,691.000000,,2013-06-25 16:44:00,
2013-06-25 12:52:00,82.0,69.0,-100.00,WSW,250,2.0,11.0,66,0.00,,,0.49,691.000000,,2013-06-25 16:52:00,
2013-06-25 13:01:00,80.0,70.0,-100.00,WSW,245,2.0,9.0,72,0.00,,,0.49,308.000000,,2013-06-25 17:01:00,
2013-06-25 13:34:00,80.0,70.0,-100.00,WSW,245,2.0,9.0,72,0.00,,,0.49,308.000000,,2013-06-25 17:34:00,
2013-06-25 13:44:00,80.0,70.0,-100.00,WSW,245,2.0,9.0,72,0.00,,,0.49,308.000000,,2013-06-25 17:44:00,
2013-06-25 13:53:00,80.0,70.0,-100.00,WSW,245,2.0,9.0,72,0.00,,,0.49,308.000000,,2013-06-25 17:53:00,
2013-06-25 14:01:00,80.0,76.0,-100.00,NNW,342,1.0,6.0,87,0.06,,,0.55,366.000000,,2013-06-25 18:01:00,
2013-06-25 14:34:00,80.0,76.0,-100.00,NNW,342,1.0,6.0,87,0.06,,,0.55,366.000000,,2013-06-25 18:34:00,
2013-06-25 14:45:00,80.0,76.0,-100.00,NNW,342,1.0,6.0,87,0.06,,,0.55,366.000000,,2013-06-25 18:45:00,
2013-06-25 14:53:00,80.0,76.0,-100.00,NNW,342,1.0,6.0,87,0.06,,,0.55,366.000000,,2013-06-25 18:53:00,
2013-06-25 15:01:00,78.0,72.0,-100.00,WNW,284,1.0,11.0,81,0.00,,,0.55,372.000000,,2013-06-25 19:01:00,
2013-06-25 15:33:00,78.0,72.0,-100.00,WNW,284,1.0,11.0,81,0.00,,,0.55,372.000000,,2013-06-25 19:33:00,
2013-06-25 15:44:00,78.0,72.0,-100.00,WNW,284,1.0,11.0,81,0.00,,,0.55,372.000000,,2013-06-25 19:44:00,
2013-06-25 15:54:00,78.0,72.0,-100.00,WNW,284,1.0,11.0,81,0.00,,,0.55,372.000000,,2013-06-25 19:54:00,
2013-06-25 16:01:00,74.0,70.0,-100.00,WSW,238,1.0,6.0,86,0.10,,,0.65,234.000000,,2013-06-25 20:01:00,
2013-06-25 16:33:00,74.0,70.0,-100.00,WSW,238,1.0,6.0,86,0.10,,,0.65,234.000000,,2013-06-25 20:33:00,
2013-06-25 16:43:00,74.0,70.0,-100.00,WSW,238,1.0,6.0,86,0.10,,,0.65,234.000000,,2013-06-25 20:43:00,
2013-06-25 16:52:00,74.0,70.0,-100.00,WSW,238,1.0,6.0,86,0.10,,,0.65,234.000000,,2013-06-25 20:52:00,
2013-06-25 17:01:00,73.0,69.0,-100.00,SE,145,3.0,10.0,88,0.00,,,0.65,229.000000,,2013-06-25 21:01:00,
2013-06-25 17:34:00,73.0,69.0,-100.00,SE,145,3.0,10.0,88,0.00,,,0.65,229.000000,,2013-06-25 21:34:00,
2013-06-25 17:43:00,73.0,69.0,-100.00,SE,145,3.0,10.0,88,0.00,,,0.65,229.000000,,2013-06-25 21:43:00,
2013-06-25 17:53:00,73.0,69.0,-100.00,SE,145,3.0,10.0,88,0.00,,,0.65,229.000000,,2013-06-25 21:53:00,
2013-06-25 18:01:00,77.0,70.0,-100.00,SSW,195,1.0,7.0,78,0.00,,,0.65,316.000000,,2013-06-25 22:01:00,
2013-06-25 18:34:00,77.0,70.0,-100.00,SSW,195,1.0,7.0,78,0.00,,,0.65,316.000000,,2013-06-25 22:34:00,
2013-06-25 18:42:00,77.0,70.0,-100.00,SSW,195,1.0,7.0,78,0.00,,,0.65,316.000000,,2013-06-25 22:42:00,
2013-06-25 18:52:00,77.0,70.0,-100.00,SSW,195,1.0,7.0,78,0.00,,,0.65,316.000000,,2013-06-25 22:52:00,
2013-06-25 19:01:00,76.0,71.0,-100.00,SW,220,1.0,6.0,84,0.00,,,0.65,198.000000,,2013-06-25 23:01:00,
2013-06-25 19:22:00,76.0,71.0,-100.00,SW,220,1.0,6.0,84,0.00,,,0.65,198.000000,,2013-06-25 23:22:00,
2013-06-25 19:34:00,76.0,71.0,-100.00,SW,220,1.0,6.0,84,0.00,,,0.65,198.000000,,2013-06-25 23:34:00,
2013-06-25 19:44:00,76.0,71.0,-100.00,SW,220,1.0,6.0,84,0.00,,,0.65,198.000000,,2013-06-25 23:44:00,
2013-06-25 19:52:00,76.0,71.0,-100.00,SW,220,1.0,6.0,84,0.00,,,0.65,198.000000,,2013-06-25 23:52:00,
2013-06-25 20:01:00,73.0,70.0,-100.00,North,356,0.0,5.0,91,0.00,,,0.34,58.000000,,2013-06-26 00:01:00,
2013-06-25 20:33:00,73.0,70.0,-100.00,North,356,0.0,5.0,91,0.00,,,0.34,58.000000,,2013-06-26 00:33:00,
2013-06-25 20:42:00,73.0,70.0,-100.00,North,356,0.0,5.0,91,0.00,,,0.34,58.000000,,2013-06-26 00:42:00,
2013-06-25 20:53:00,73.0,70.0,-100.00,North,356,0.0,5.0,91,0.00,,,0.34,58.000000,,2013-06-26 00:53:00,
2013-06-25 21:01:00,71.0,69.0,-100.00,SE,136,0.0,3.0,95,0.00,,,0.16,17.000000,,2013-06-26 01:01:00,
2013-06-25 21:33:00,71.0,69.0,-100.00,SE,136,0.0,3.0,95,0.00,,,0.16,17.000000,,2013-06-26 01:33:00,
2013-06-25 21:43:00,71.0,69.0,-100.00,SE,136,0.0,3.0,95,0.00,,,0.16,17.000000,,2013-06-26 01:43:00,
2013-06-25 21:53:00,71.0,69.0,-100.00,SE,136,0.0,3.0,95,0.00,,,0.16,17.000000,,2013-06-26 01:53:00,
2013-06-25 22:01:00,72.0,69.0,-100.00,South,169,1.0,6.0,90,0.00,,,0.16,0.000000,,2013-06-26 02:01:00,
2013-06-25 22:34:00,72.0,69.0,-100.00,South,169,1.0,6.0,90,0.00,,,0.16,0.000000,,2013-06-26 02:34:00,
2013-06-25 22:43:00,72.0,69.0,-100.00,South,169,1.0,6.0,90,0.00,,,0.16,0.000000,,2013-06-26 02:43:00,
2013-06-25 22:53:00,72.0,69.0,-100.00,South,169,1.0,6.0,90,0.00,,,0.16,0.000000,,2013-06-26 02:53:00,
2013-06-25 23:01:00,71.0,68.0,-100.00,WNW,300,0.0,7.0,91,0.00,,,0.16,0.000000,,2013-06-26 03:01:00,
2013-06-25 23:33:00,71.0,68.0,-100.00,WNW,300,0.0,7.0,91,0.00,,,0.16,0.000000,,2013-06-26 03:33:00,
2013-06-25 23:43:00,71.0,68.0,-100.00,WNW,300,0.0,7.0,91,0.00,,,0.16,0.000000,,2013-06-26 03:43:00,
2013-06-25 23:52:00,71.0,68.0,-100.00,WNW,300,0.0,7.0,91,0.00,,,0.16,0.000000,,2013-06-26 03:52:00,